User: anonymous   Login
Location: Nairn
(57.5833°N, 3.8667°W)
Time: 16:50:23
(UTC+00:00)
Language:

Cosmos 1437 - Orbit

View from above orbital plane
View from above orbital plane
View from above satellite
View from above satellite

Ground track
Ground track

The orbit data is extracted from the following two-line orbital elements,

1 13770U 83003A   20298.12646851  .00018591  00000-0  17467-3 0  9998
2 13770  81.1573  67.6707 0002546 183.8159 176.3078 15.66992579 77331
Epoch (UTC): 24 October 2020 03:02:06
Eccentricity: 0.0002546
inclination: 81.1573°
perigee height: 366 km
apogee height: 369 km
right ascension of ascending node: 67.6707°
argument of perigee: 183.8159°
revolutions per day: 15.66992579
mean anomaly at epoch: 176.3078°
orbit number at epoch: 7733

The dashed part of the orbit path shows where the satellite is in the earth's shadow,  

DLR